Wind_Speed
59 59 59 59 59 59 61 60 59 60 61 61 61 60 60 59 59 58 57 55 54 53 52 53 53 54 55 55 55 55 54 53 51 48 47 45 45 45 45 45 45 44 42 41 39 38 37 37 38 39 39 39 39 38 37 36 37 37 38 39 41 42 43 44 46 48 49 49 50 50 50 50 50 49 50 51 52 53 56 58 60 62 63 64 64 64
59 59 59 59 58 59 61 61 59 59 59 60 60 59 58 58 57 57 56 56 55 54 54 55 56 57 57 58 58 58 57 56 54 52 50 49 48 47 47 46 45 43 42 40 38 37 36 36 37 37 36 36 35 35 35 35 36 37 38 39 40 42 44 46 48 49 49 49 49 49 49 50 50 51 52 52 53 54 55 57 60 62 63 63 63 63
58 59 59 59 58 59 60 60 59 58 57 57 58 58 57 56 55 55 55 56 56 56 57 57 59 60 60 61 61 60 58 56 54 53 52 51 50 49 48 46 44 42 40 38 37 36 35 35 34 34 33 33 33 34 35 36 37 38 39 39 40 42 44 46 48 48 48 48 48 48 48 49 50 51 52 53 53 53 54 56 58 58 58 58 57 56
58 58 59 59 58 58 58 58 57 57 56 56 56 56 55 54 53 54 55 56 57 58 59 60 62 62 63 62 61 59 57 54 53 52 51 50 50 48 46 44 42 40 38 37 36 35 34 34 33 33 33 33 33 34 35 36 37 38 39 40 41 43 44 46 47 47 48 48 48 48 48 49 50 51 52 52 51 52 53 54 55 54 53 51 50 49
57 56 57 57 57 56 56 56 55 55 56 55 55 54 53 52 52 54 56 57 59 61 62 63 64 64 64 62 59 56 53 51 50 49 49 48 47 45 44 41 39 38 36 35 35 34 34 34 33 33 33 33 33 34 35 36 36 37 38 40 41 43 44 45 46 46 47 47 47 47 48 48 49 50 50 50 50 50 51 51 51 49 48 46 46 46
56 55 54 54 54 54 55 55 55 54 54 54 53 52 51 52 53 55 57 60 62 64 65 65 65 64 62 59 56 53 50 49 48 47 46 45 44 42 40 38 36 35 35 34 34 34 34 34 34 33 33 33 33 33 34 34 35 36 37 39 40 42 43 44 44 45 45 45 46 46 47 47 48 49 49 49 49 49 48 48 47 45 44 43 43 45
54 53 51 51 51 53 53 54 53 53 52 51 52 52 52 53 55 57 60 62 64 65 66 65 63 61 58 55 52 50 48 47 46 45 43 42 41 39 37 35 34 34 34 34 34 34 34 33 33 32 32 32 32 32 33 33 34 35 36 37 39 40 41 42 42 42 43 43 43 44 44 45 45 46 46 47 47 46 45 44 43 41 41 41 42 44
52 51 50 49 51 52 53 52 51 50 49 50 51 53 55 57 58 60 62 63 64 65 64 63 60 57 54 52 50 48 47 45 44 42 41 40 38 37 35 34 33 33 33 33 33 33 32 31 31 30 31 31 31 32 32 32 32 33 34 35 37 38 39 40 40 40 40 40 40 40 41 41 41 42 42 43 42 42 41 40 39 39 39 40 42 44
48 49 50 50 50 50 51 50 50 49 49 50 52 55 57 60 61 62 62 62 62 61 61 59 57 54 52 50 48 47 45 43 42 40 39 38 37 35 34 34 33 33 32 32 31 31 30 30 30 31 31 31 31 31 31 31 31 32 33 34 35 37 37 38 38 38 38 37 37 37 37 37 37 37 37 37 38 38 38 38 38 38 38 40 41 43
46 47 49 50 49 47 47 49 49 50 50 52 53 56 58 61 63 64 63 62 59 57 56 55 54 53 51 49 47 45 43 41 40 38 37 36 35 35 34 33 32 31 31 30 30 30 30 31 31 31 31 31 30 30 30 30 30 31 32 33 34 35 36 36 36 36 35 34 34 33 33 32 32 32 33 34 34 35 36 36 37 38 39 40 41 42
47 47 47 47 47 47 47 49 50 51 52 53 55 57 59 61 63 65 65 62 58 54 53 52 51 51 50 48 45 43 41 40 38 37 36 36 35 34 33 32 31 31 30 30 31 31 31 32 32 32 31 30 30 29 29 29 30 31 32 33 34 35 35 35 34 34 33 31 30 29 29 28 29 30 31 33 34 35 36 37 37 38 39 40 41 42
46 47 47 47 48 48 49 51 52 53 54 55 57 59 60 61 62 63 64 62 58 54 52 50 48 47 46 45 44 42 40 39 38 38 37 36 35 34 34 33 32 32 32 32 32 32 32 32 32 31 31 30 29 29 29 29 30 30 31 32 33 34 34 34 33 32 31 29 28 26 26 27 28 29 31 33 34 36 37 38 38 39 40 41 41 41
46 47 48 49 50 51 52 53 54 55 56 58 60 62 63 62 61 61 61 59 56 53 50 49 47 45 43 43 42 42 41 40 39 38 38 37 37 37 37 36 35 34 34 34 33 32 32 32 32 32 31 30 29 29 28 29 29 30 31 32 33 33 33 33 32 31 29 27 26 25 26 27 28 29 31 33 35 37 38 39 40 41 41 41 41 41
47 49 50 51 52 53 54 55 56 58 59 60 61 63 63 62 60 58 57 55 52 49 47 46 45 44 42 42 42 42 42 41 41 40 40 40 40 40 40 40 38 36 36 36 35 33 33 33 33 32 31 30 29 28 28 28 28 29 30 31 32 33 33 32 32 30 29 27 26 26 28 28 30 31 33 35 37 39 41 42 43 42 42 42 42 42
48 50 52 53 54 55 55 56 58 59 60 61 61 62 61 59 57 54 53 50 48 46 45 44 44 44 43 43 43 43 43 43 43 43 43 43 42 42 43 42 40 38 37 37 36 35 34 34 34 33 31 30 29 28 27 27 28 29 30 31 32 33 33 32 31 30 29 28 28 29 30 31 33 34 35 37 39 41 43 44 45 44 44 44 44 44
49 50 52 54 55 56 56 57 59 60 61 61 60 60 59 56 53 50 48 46 45 44 44 44 44 45 45 44 43 43 44 45 45 45 45 45 44 43 43 44 42 40 38 38 37 37 35 35 34 33 32 31 29 28 27 27 27 28 30 31 32 33 33 32 31 29 29 30 31 33 35 36 37 38 39 40 42 43 44 45 46 46 46 46 46 46
49 51 53 55 56 57 57 58 59 60 60 59 58 56 54 51 48 46 44 43 43 43 44 44 46 47 47 46 44 43 44 45 46 46 46 46 45 43 43 43 42 41 39 38 37 37 36 36 35 34 33 31 29 28 27 26 27 28 29 31 32 33 33 32 31 31 32 33 35 37 39 40 40 41 41 42 43 43 44 45 45 46 47 48 49 48
50 52 54 55 56 57 57 58 58 58 58 57 54 51 48 46 44 42 42 42 42 43 44 44 45 46 47 48 46 44 44 45 46 46 47 46 45 43 42 41 41 40 39 38 37 36 36 35 35 34 33 31 30 28 26 26 26 27 28 30 31 33 34 34 34 34 35 37 38 40 41 42 43 43 43 43 43 43 44 44 45 46 48 50 51 50
51 52 54 55 56 57 57 57 57 56 54 52 50 47 45 43 42 41 41 42 42 43 44 45 45 46 46 47 46 45 44 44 45 46 46 46 45 43 41 41 40 39 38 37 36 35 34 34 34 33 32 31 29 27 26 25 25 26 28 29 30 32 33 35 36 37 38 39 40 41 42 43 44 45 45 45 45 44 44 44 45 47 50 51 52 51
53 53 54 55 57 57 57 55 53 51 49 47 45 44 43 42 41 41 42 42 42 43 44 44 45 46 46 46 46 45 43 43 44 44 45 45 44 42 40 40 39 39 37 36 34 33 32 32 32 31 30 29 28 26 26 25 25 26 27 28 29 30 32 34 36 37 38 39 40 41 42 43 45 45 46 45 44 44 44 45 47 49 52 53 52 51
54 55 55 55 56 56 55 52 49 46 44 43 42 42 42 42 42 42 42 43 43 43 44 44 45 45 45 45 45 44 42 42 43 43 44 44 43 41 39 38 38 37 36 34 32 31 31 31 30 29 29 28 28 27 27 27 27 27 27 27 28 29 30 32 34 35 37 38 39 40 41 42 43 44 43 43 42 42 43 46 49 52 54 54 53 51
55 55 54 53 52 52 50 47 44 42 40 40 41 42 42 43 43 43 43 43 43 43 44 44 44 44 44 44 43 41 40 40 41 42 43 44 43 40 37 36 36 36 35 33 32 31 30 30 29 29 28 27 27 27 26 26 27 27 27 28 28 28 28 29 30 32 34 35 37 38 39 40 41 40 40 39 40 42 45 48 51 54 56 56 54 51
53 53 52 50 48 46 44 42 40 39 39 39 40 41 42 43 43 43 43 43 43 43 43 43 43 42 42 42 41 40 38 38 39 40 41 43 42 39 36 35 35 35 35 33 32 31 31 30 30 29 28 26 25 25 24 25 25 26 27 27 28 28 27 27 28 29 30 32 33 35 37 38 39 39 40 41 43 46 49 52 54 56 57 56 54 52
51 50 48 46 43 41 39 38 38 38 38 39 40 40 41 41 42 42 42 42 42 42 42 42 42 42 41 41 40 38 37 36 36 38 39 40 40 39 36 35 35 35 35 33 33 32 32 31 29 28 27 25 24 23 22 23 23 24 25 26 26 27 27 27 27 28 28 30 31 33 35 37 39 40 42 45 47 50 52 54 55 56 55 54 53 52
46 44 42 40 38 37 36 36 37 38 38 39 39 39 40 40 40 40 40 40 41 41 41 42 42 41 41 39 38 37 35 34 34 35 37 38 39 38 36 35 35 36 36 34 33 33 33 32 29 27 25 23 22 21 21 21 22 23 23 24 25 25 26 26 27 27 28 30 31 33 34 36 38 40 43 45 47 49 51 52 53 53 53 52 51 51
40 38 36 35 34 34 35 35 36 36 37 37 37 38 38 38 39 39 39 38 38 38 39 40 40 40 39 38 37 36 34 33 33 33 35 37 38 38 36 35 35 36 37 36 35 35 34 32 29 26 24 22 21 20 20 20 21 22 22 23 23 24 24 25 26 27 28 29 31 32 33 35 37 39 41 43 45 46 47 48 48 48 48 48 48 49
35 34 33 33 33 34 34 35 35 35 35 34 34 34 35 36 37 37 37 36 36 36 37 38 39 39 38 38 37 35 34 33 32 32 34 36 38 38 37 36 36 37 38 38 38 37 35 33 29 26 24 22 21 20 20 20 20 21 21 22 22 23 24 25 26 27 28 29 30 32 33 35 36 37 39 40 41 41 42 42 43 43 43 43 45 46
33 32 32 33 34 34 34 34 33 33 32 31 31 31 31 32 33 34 34 33 33 34 35 36 37 38 39 38 37 36 35 33 33 33 34 36 38 38 38 37 37 38 40 40 39 37 35 33 30 28 26 24 22 21 20 20 20 20 21 21 22 23 24 25 26 27 28 29 31 32 33 34 35 35 36 36 37 37 37 38 38 38 38 40 42 44
32 33 33 33 34 33 33 32 31 30 29 28 27 27 28 29 30 31 31 31 32 33 34 35 36 38 39 39 38 37 35 34 33 33 34 36 38 38 38 38 38 38 40 41 41 38 34 32 31 30 29 27 25 24 23 22 22 21 21 21 22 23 24 25 26 27 28 30 30 31 32 32 32 32 33 33 34 34 34 34 34 34 35 36 38 40
34 34 34 33 33 32 30 29 28 27 26 25 25 25 25 26 27 28 29 30 31 33 34 35 36 37 38 39 39 39 37 34 32 32 34 36 37 38 38 38 38 38 39 41 42 41 36 32 30 31 31 30 28 26 25 23 22 21 21 22 22 22 22 23 24 26 27 28 28 29 29 29 29 29 30 30 31 31 31 30 30 31 31 32 33 35
35 35 34 33 31 29 28 27 25 24 24 23 23 24 24 25 27 28 29 30 31 33 34 35 36 37 38 38 39 40 38 35 32 32 34 35 37 38 38 38 38 38 38 39 41 42 40 35 31 29 30 30 28 26 24 23 21 21 21 21 21 21 21 21 22 23 24 24 25 25 25 26 26 27 27 27 27 27 27 27 27 27 27 27 28 30
36 35 34 32 29 27 26 25 24 24 23 23 24 24 25 26 27 28 30 31 32 33 34 35 36 37 37 37 38 39 39 36 33 32 33 35 36 37 38 38 39 39 38 38 38 40 42 39 34 30 29 28 27 25 22 21 20 20 20 20 20 20 19 19 20 20 21 21 21 21 22 22 23 23 23 23 23 23 23 23 23 22 22 22 23 24
35 34 31 29 27 25 24 24 24 24 24 24 25 26 26 27 28 29 30 31 32 33 34 35 36 37 37 37 38 38 37 36 34 32 33 34 35 37 37 38 39 39 38 38 37 38 39 39 37 33 28 26 24 23 21 19 18 18 18 19 19 18 17 17 17 18 18 18 18 18 19 19 19 19 19 19 19 19 19 19 18 18 18 18 18 20
33 31 29 27 25 24 23 23 24 24 25 26 26 27 28 28 29 30 30 31 31 32 33 34 35 36 36 37 37 37 36 34 33 32 32 33 34 36 37 37 38 39 39 39 38 38 38 37 36 34 30 24 21 19 19 18 17 16 16 17 17 17 16 16 16 17 17 16 16 16 16 17 17 17 17 17 17 16 16 15 15 14 14 14 15 16
31 28 26 25 24 24 24 24 25 25 26 27 27 28 28 29 29 30 30 30 31 31 31 32 33 33 34 35 36 36 35 33 31 31 31 32 33 35 36 37 37 38 39 39 38 38 37 36 34 33 30 25 20 17 17 16 15 14 14 15 15 16 16 16 16 16 16 15 15 15 15 15 15 15 15 15 15 15 13 12 12 11 11 11 12 14
28 26 25 25 25 25 26 26 26 27 27 27 27 28 28 29 29 29 30 30 30 30 30 30 31 31 31 32 33 34 34 32 31 30 30 31 32 33 35 36 36 36 37 38 37 36 36 34 32 30 28 25 21 17 14 13 12 12 12 13 14 14 15 15 16 16 15 14 13 13 13 13 13 13 13 13 13 13 12 11 10 9 9 9 11 13
27 26 25 26 26 27 27 27 27 27 28 27 27 28 28 28 29 29 29 29 29 29 29 29 29 29 29 30 30 31 31 31 30 30 29 30 31 32 33 34 35 34 35 35 35 35 34 33 30 27 25 23 21 18 15 12 10 10 10 12 13 13 14 14 14 14 13 13 12 11 11 11 11 10 10 10 11 11 11 11 10 9 9 9 10 12
26 26 26 27 27 27 28 28 28 27 27 28 28 28 28 28 28 28 29 29 29 29 30 30 29 29 28 28 28 28 29 29 29 29 29 29 30 31 32 33 33 33 32 32 33 32 32 31 29 27 24 20 18 17 15 13 10 9 9 10 12 13 13 13 13 13 13 12 12 11 11 10 9 8 6 5 5 6 7 8 8 9 9 9 10 11
26 27 27 27 27 28 28 28 28 27 27 27 27 28 28 28 28 28 29 29 30 30 30 31 30 29 28 27 27 26 27 27 27 27 27 28 28 29 30 31 31 31 30 30 30 29 29 28 27 25 23 19 17 14 13 11 10 10 10 10 11 12 13 13 13 13 13 14 14 14 14 13 12 11 10 8 6 4 2 2 4 6 8 9 10 11
27 27 27 27 27 27 27 27 27 27 27 27 27 27 28 28 28 28 29 29 30 31 31 31 31 30 28 27 26 25 25 25 25 26 26 26 27 27 28 29 29 29 28 28 27 26 26 25 23 21 20 18 16 13 11 10 10 10 11 11 11 11 12 12 13 13 14 16 17 17 18 17 17 17 16 14 12 10 7 4 2 4 7 9 10 11
27 27 27 27 27 27 27 27 27 27 27 27 27 27 28 28 28 29 29 29 30 31 32 32 31 29 27 26 24 23 23 23 24 24 24 24 25 25 26 26 27 27 27 26 25 24 23 22 20 18 16 15 14 12 10 9 9 10 11 12 12 12 12 13 14 15 17 17 18 18 19 19 19 19 19 18 16 13 10 7 4 4 7 10 11 12
27 27 27 27 27 27 27 27 27 27 27 27 27 27 28 28 29 29 29 30 30 31 32 32 31 29 27 24 23 22 21 22 22 22 23 23 23 24 24 25 25 26 25 25 23 22 19 18 16 15 13 12 11 10 9 9 10 11 12 13 13 13 14 15 17 18 19 19 19 19 19 20 20 19 18 17 15 13 9 6 5 5 7 9 12 13
26 27 27 27 27 27 27 27 27 27 27 27 26 26 27 27 28 28 29 29 30 31 31 31 30 28 26 24 22 20 20 20 20 21 21 22 22 22 23 23 24 24 24 23 21 19 16 14 13 12 11 10 10 9 9 9 10 11 12 13 14 16 17 18 20 21 21 21 21 21 21 22 21 21 19 17 14 11 7 5 4 6 8 9 11 12
26 26 26 27 27 27 28 28 28 28 27 26 26 25 25 26 27 27 28 29 29 30 31 30 29 27 25 23 22 21 20 19 19 20 20 20 21 22 22 23 22 22 21 20 18 15 12 10 9 9 9 10 10 9 9 10 11 12 13 14 17 19 22 22 23 23 23 22 22 22 23 23 23 22 20 18 15 11 8 5 5 6 8 9 10 11
26 26 27 27 28 28 28 29 28 28 27 26 25 25 25 25 26 26 27 28 29 29 30 29 28 27 25 23 22 21 20 19 19 19 19 20 20 21 21 22 21 20 18 16 14 12 9 8 8 9 10 10 10 10 10 11 12 13 14 16 19 22 23 24 25 24 24 23 23 22 23 23 23 22 20 18 16 13 10 7 5 5 6 7 9 10
26 27 27 28 29 29 29 29 28 27 26 25 24 24 24 24 25 25 26 27 28 29 29 28 27 26 24 23 22 22 21 20 20 20 20 20 20 20 20 20 19 17 15 13 10 9 8 8 9 11 12 12 11 11 11 12 13 15 17 19 21 23 24 25 25 25 24 24 23 23 23 23 22 21 19 17 15 13 10 7 5 5 4 5 7 9
26 27 28 29 30 30 29 29 28 27 25 24 23 23 23 24 24 25 25 26 28 28 28 26 25 24 23 22 22 22 22 22 22 21 21 21 20 20 19 18 16 14 12 10 9 8 9 10 11 12 13 12 12 12 12 13 15 17 19 21 23 24 25 25 25 25 24 23 23 22 22 22 22 21 19 15 12 9 7 5 4 3 3 3 5 7
27 28 29 30 30 30 29 28 27 26 25 24 23 22 22 23 24 25 26 27 27 27 26 25 24 23 22 22 22 23 23 23 23 23 22 22 20 19 17 16 14 12 11 10 10 10 11 12 13 13 13 12 12 13 14 15 16 18 20 22 24 25 26 26 25 25 24 23 22 21 21 21 21 20 18 15 10 6 3 3 2 1 1 2 3 6
28 29 30 31 30 29 28 27 26 25 25 24 23 22 22 22 23 24 26 27 27 27 26 25 23 23 22 22 22 23 23 23 23 23 23 22 21 19 17 15 13 12 11 11 11 12 13 14 14 13 13 12 13 14 15 16 17 19 20 22 24 25 26 26 26 25 24 23 22 21 20 20 20 20 18 15 10 5 3 3 3 2 2 3 3 5
29 30 31 30 30 28 27 26 26 25 25 24 23 23 22 21 21 23 25 26 27 26 25 24 23 23 23 23 23 23 23 23 22 22 22 22 20 18 16 15 13 13 12 12 13 13 14 14 14 13 13 12 13 14 16 17 18 19 20 22 23 25 25 25 25 25 24 23 21 20 19 19 19 19 17 15 11 6 4 5 5 4 3 4 5 6
30 30 30 29 28 27 26 25 25 25 24 24 24 23 22 21 21 22 23 25 26 25 24 23 23 23 23 23 23 23 23 22 22 22 22 21 20 18 16 14 14 13 13 13 13 14 14 14 15 14 13 13 12 13 15 17 18 19 20 21 23 24 24 25 25 25 24 23 21 20 18 18 18 18 17 15 12 8 5 6 6 5 4 4 5 6
Wind_Direction
306 305 305 305 305 305 304 304 305 305 305 306 306 307 307 306 306 305 305 304 304 304 305 306 308 309 310 310 311 310 309 307 305 304 302 302 302 302 302 302 301 299 296 293 290 287 284 280 278 277 276 276 276 276 275 274 274 273 272 271 271 271 271 269 267 264 263 262 261 260 258 255 253 250 250 251 253 255 256 256 255 254 254 254 255 256
305 305 305 305 305 304 304 305 305 306 306 306 307 307 307 306 305 305 305 305 305 306 307 309 310 310 311 311 311 310 308 307 305 303 302 302 302 302 303 303 302 300 297 294 291 289 286 283 280 279 278 278 278 277 276 275 274 273 271 270 269 269 270 269 267 265 264 263 262 261 259 257 254 252 251 252 253 255 256 257 257 256 256 256 257 259
305 305 305 305 305 305 304 305 306 307 307 307 306 306 306 306 306 305 306 306 307 309 310 310 310 310 310 310 310 309 307 305 303 302 301 301 301 302 303 302 301 299 296 294 292 290 288 286 284 283 282 281 281 280 279 277 275 273 271 269 268 268 268 267 266 266 265 264 263 261 260 258 256 254 254 254 255 256 257 258 258 259 259 260 260 261
305 305 305 305 305 305 305 306 306 306 306 306 306 306 306 307 306 306 306 307 308 309 309 309 309 308 308 308 308 307 305 304 303 302 301 301 301 302 302 302 300 298 296 294 292 291 290 288 287 286 285 284 283 282 280 278 276 273 271 270 268 268 267 266 266 266 265 264 263 262 260 258 257 256 255 256 257 258 258 259 260 260 261 261 262 262
306 306 306 305 305 305 305 306 306 306 306 306 307 307 308 308 307 306 307 307 307 307 307 307 307 307 307 307 307 306 305 304 303 302 302 302 302 302 302 301 300 297 295 294 292 291 290 289 288 286 284 283 282 281 280 278 276 273 271 270 268 267 267 267 267 267 266 265 264 263 261 259 258 257 256 256 257 258 259 260 261 261 261 261 261 261
306 306 305 305 305 305 305 305 306 306 307 308 309 309 309 308 306 305 305 305 306 306 306 306 306 307 307 307 307 307 305 305 304 303 303 303 303 303 302 301 298 296 294 292 291 290 288 287 285 284 283 282 282 281 280 278 276 273 271 269 268 268 267 268 268 268 267 267 266 265 263 261 260 258 257 256 257 258 259 260 261 260 260 259 259 259
305 305 304 304 304 304 304 306 307 309 310 310 310 309 307 306 305 304 304 304 304 304 305 305 306 307 307 307 307 306 305 304 304 304 304 304 304 303 301 299 297 294 292 291 289 288 286 285 284 284 284 285 284 283 282 279 277 274 271 270 269 268 268 268 269 269 268 268 268 267 266 264 262 260 258 257 258 258 259 259 258 258 258 259 259 259
304 304 303 303 304 305 306 308 310 310 310 309 308 306 305 304 303 303 303 303 304 304 305 306 306 307 307 307 306 305 304 303 304 304 304 304 303 302 300 298 296 294 292 290 289 287 287 286 287 288 288 288 287 285 282 279 277 274 272 271 270 269 269 269 269 270 270 270 270 269 268 266 264 262 260 259 258 258 257 256 255 255 256 258 259 259
303 303 304 305 307 309 310 310 309 308 307 305 304 304 303 303 303 303 303 304 304 305 306 307 307 307 306 305 304 303 303 303 303 304 304 304 303 301 300 298 297 295 294 292 291 291 291 292 292 292 291 289 287 284 282 279 276 274 273 271 271 270 270 270 271 271 272 272 271 270 269 267 265 263 261 259 256 254 252 251 251 253 255 257 258 259
303 305 307 309 310 310 308 306 305 305 304 303 303 302 302 302 303 304 305 306 306 307 308 307 307 306 305 304 303 303 303 303 303 304 304 303 302 301 300 299 299 299 298 297 297 297 296 296 295 294 292 289 286 283 281 278 276 274 273 272 271 271 271 272 272 273 273 273 273 272 270 268 265 263 260 256 252 249 247 248 250 252 255 256 257 258
307 309 310 310 309 307 305 303 303 304 305 304 304 303 303 304 305 306 307 308 308 308 308 307 306 305 304 303 303 304 304 304 304 304 303 302 302 302 302 303 303 304 303 302 301 300 299 297 295 293 290 288 285 283 280 278 276 274 272 271 271 271 272 273 273 274 274 274 274 273 271 269 266 263 259 253 248 246 246 248 250 253 254 255 256 256
311 310 309 307 305 305 304 304 305 306 306 306 305 305 305 306 307 308 308 308 309 308 308 307 305 304 304 304 305 306 306 306 305 305 304 305 305 306 307 308 308 307 306 304 302 300 298 297 294 292 289 287 285 282 280 278 275 273 271 271 271 271 272 272 273 273 273 273 273 273 271 269 266 261 257 252 248 246 248 250 252 253 254 255 255 255
310 307 305 304 304 305 305 306 307 307 307 306 305 305 306 307 308 308 308 307 307 307 307 306 306 305 305 306 307 308 308 308 307 307 308 309 310 310 311 310 310 308 306 304 301 299 298 296 293 290 288 286 284 281 279 276 274 272 270 270 270 270 271 271 272 272 272 271 271 271 270 268 265 260 256 252 250 249 250 251 252 252 253 254 254 254
305 304 304 305 305 306 306 306 305 305 305 305 305 306 307 308 308 308 307 306 306 307 307 307 307 307 308 309 310 311 311 310 310 310 311 311 310 310 311 310 309 307 306 303 301 298 297 295 292 289 287 285 283 280 277 274 271 270 269 268 268 269 269 269 269 269 269 268 269 268 266 263 261 258 255 253 251 250 250 250 250 251 253 254 254 254
302 303 304 304 305 304 304 303 303 303 304 305 306 307 307 308 308 307 307 306 307 308 308 309 309 309 309 310 312 312 312 312 312 312 311 310 309 309 309 309 307 306 304 302 300 298 296 294 292 289 286 284 282 279 276 272 269 267 266 266 266 266 267 267 267 267 267 267 267 265 261 258 255 253 252 250 249 249 249 249 249 250 252 253 253 253
302 303 303 303 302 302 302 302 302 303 304 305 307 307 307 307 307 307 307 307 308 310 311 311 311 310 310 311 312 312 311 311 311 310 309 309 309 309 308 307 306 305 303 302 300 298 296 294 292 289 287 285 282 278 275 271 267 265 264 264 264 264 264 264 264 266 266 265 263 260 257 254 252 251 250 249 249 249 249 249 249 250 251 251 252 252
302 302 301 300 300 300 301 302 303 304 305 306 307 307 307 307 307 308 308 309 310 311 312 312 311 310 311 311 312 311 310 310 309 309 309 308 308 308 308 307 306 304 303 301 299 298 296 294 292 290 288 285 282 278 274 269 265 262 261 261 261 261 261 259 259 259 258 258 258 256 255 254 253 252 252 252 251 251 251 251 251 251 251 251 251 250
301 299 299 298 299 300 302 303 304 305 306 307 307 308 308 307 308 308 309 310 310 311 311 310 310 309 309 310 311 311 310 310 309 309 308 307 307 308 308 307 307 305 303 301 300 298 297 295 293 291 288 285 282 277 273 267 263 260 258 258 259 259 259 257 256 255 254 254 253 253 253 253 253 254 254 254 254 254 254 253 253 252 252 251 250 250
299 299 299 300 301 302 304 305 306 307 307 308 308 308 308 308 308 309 309 309 309 309 309 308 308 308 308 308 309 310 311 311 310 309 308 307 307 308 309 309 308 306 304 302 301 299 297 294 292 290 288 285 282 278 274 269 265 261 259 258 258 257 256 256 256 256 256 255 254 254 253 253 253 253 254 254 254 255 255 255 254 254 253 252 251 250
299 300 301 302 303 304 305 306 307 308 309 309 309 309 308 309 309 309 309 309 309 308 308 307 307 307 308 308 309 310 312 312 312 311 309 308 308 309 311 311 309 307 304 303 302 301 298 295 293 292 291 289 288 286 283 280 276 271 267 264 261 258 257 255 255 255 255 255 254 254 253 253 253 253 253 254 255 255 256 256 255 255 254 253 252 250
300 301 302 303 304 305 306 307 309 310 310 310 309 309 309 310 310 310 310 310 309 309 308 308 308 308 308 309 310 312 314 315 314 312 311 309 308 310 312 312 310 308 306 305 305 304 302 299 298 297 297 296 296 296 294 292 288 283 278 273 269 264 260 257 256 255 254 254 254 253 253 253 253 254 254 255 256 256 256 255 255 254 253 252 251 250
301 302 303 305 305 306 307 309 310 310 310 311 311 311 311 311 311 311 311 311 311 310 310 309 309 309 310 310 312 314 316 316 314 312 311 309 309 310 313 313 311 309 308 308 309 308 306 304 303 302 301 301 301 300 299 296 292 288 284 280 277 273 268 263 259 256 254 253 253 253 253 253 253 253 253 253 253 252 252 252 252 252 251 251 250 249
302 303 305 306 307 308 309 309 310 311 311 312 312 312 312 312 312 312 312 312 312 311 311 311 311 311 312 313 314 316 317 316 315 312 311 309 310 312 314 314 313 311 310 311 312 312 310 308 307 306 305 304 303 301 298 294 290 287 284 282 280 278 275 271 266 261 258 255 254 253 253 252 252 251 249 249 248 247 247 248 249 250 250 250 250 249
303 304 306 307 309 309 310 311 312 313 313 314 314 313 313 313 313 312 312 312 313 313 313 312 312 313 313 315 316 317 318 317 315 313 312 311 312 313 315 315 314 313 312 313 314 313 312 310 310 309 309 307 305 302 298 293 289 286 284 283 282 281 279 277 273 269 265 261 258 255 253 252 251 249 248 247 247 247 247 248 249 251 251 251 250 249
305 306 307 308 310 311 312 313 314 314 315 315 315 314 314 313 312 312 312 313 313 313 312 312 311 312 313 314 315 317 318 318 316 315 314 313 313 313 314 315 314 313 313 314 315 314 314 313 314 314 312 310 307 303 298 294 291 288 286 285 283 282 280 278 275 271 268 264 261 258 256 254 253 252 251 250 250 251 251 252 253 254 254 253 251 249
307 308 309 311 312 313 314 315 315 316 316 315 315 314 313 312 312 312 312 312 312 312 311 310 310 311 313 314 316 317 319 319 318 317 316 314 312 312 314 315 315 314 314 315 316 316 316 316 317 318 316 313 309 304 300 297 294 292 290 288 285 283 280 276 273 270 267 264 262 260 259 258 257 256 256 256 256 256 257 257 258 258 257 255 252 249
311 312 313 315 316 317 317 317 317 316 316 315 313 312 311 310 310 310 311 312 311 311 310 310 310 312 314 315 316 318 319 320 320 320 318 314 312 312 314 316 316 315 315 316 317 317 317 318 320 321 319 316 312 308 305 302 300 297 295 291 288 284 280 276 273 270 267 265 263 262 261 261 261 261 261 261 261 262 262 262 261 260 258 255 251 247
316 317 318 319 320 319 319 318 317 316 315 313 312 311 309 309 309 309 310 311 311 311 310 310 311 312 313 315 316 318 319 321 322 322 319 315 312 313 315 317 316 316 315 316 317 319 319 321 323 324 323 321 319 316 314 311 309 305 300 294 289 284 280 276 273 271 268 267 266 265 265 265 266 266 266 267 267 266 266 265 263 261 258 254 250 247
321 321 322 322 322 320 319 317 316 314 313 312 311 310 309 308 308 309 310 311 311 311 311 311 311 312 313 314 316 318 319 322 323 322 318 315 312 313 315 316 316 316 316 316 318 320 321 323 325 326 326 326 325 324 322 320 315 309 301 294 287 282 278 276 273 271 270 270 270 271 271 272 273 273 273 273 272 272 271 270 267 264 261 257 252 248
324 324 324 323 322 320 318 316 315 314 313 312 311 310 310 309 309 310 311 312 312 312 311 311 311 312 313 314 315 317 319 323 324 322 317 314 312 313 314 315 315 316 317 317 318 320 323 327 328 327 327 327 327 328 327 324 317 309 301 292 286 283 280 278 277 276 276 277 278 278 279 280 280 280 281 280 280 280 279 276 273 269 265 261 257 251
326 326 325 324 322 320 318 316 315 314 314 313 313 312 312 312 312 312 313 313 313 312 312 311 312 312 312 312 313 314 318 323 324 321 317 313 312 313 314 314 315 316 317 317 317 318 321 326 330 331 329 329 330 331 330 325 318 309 302 296 292 290 288 287 286 285 285 286 287 287 288 289 289 289 289 289 288 287 285 282 278 274 270 266 260 254
326 326 324 323 322 320 318 317 317 317 317 317 317 317 316 316 316 316 315 315 314 313 312 312 312 312 312 312 311 312 316 321 323 321 316 313 312 313 314 313 314 316 317 316 315 315 317 321 328 332 332 333 334 335 332 326 319 312 306 302 300 299 299 298 297 297 297 297 298 298 298 297 297 296 296 295 294 293 291 288 284 279 274 268 262 254
325 324 323 322 321 320 320 320 320 321 321 322 322 322 321 320 319 318 317 316 315 314 313 312 312 312 312 312 312 313 316 320 321 320 316 313 312 313 313 313 313 314 316 315 315 314 314 318 324 330 334 337 339 338 334 328 322 317 312 309 307 307 308 308 307 308 309 310 309 308 306 304 302 300 299 298 298 297 296 294 290 286 280 272 262 252
324 323 322 322 322 322 323 324 325 326 326 327 327 326 325 324 323 321 319 318 317 315 314 313 312 312 312 312 313 314 317 319 320 319 316 313 311 311 312 312 312 313 313 314 314 314 315 317 322 327 333 339 342 341 337 334 329 323 317 314 313 315 319 320 320 320 321 320 318 315 311 308 305 304 303 303 302 301 301 299 296 292 285 276 264 251
323 323 324 324 325 326 328 329 330 331 331 331 331 330 328 327 325 324 322 321 320 318 317 315 314 313 313 312 313 315 317 319 320 318 315 312 310 310 311 311 312 312 312 313 314 315 315 318 323 327 331 336 341 343 343 340 336 329 324 321 322 325 330 331 331 330 329 326 322 318 314 310 308 308 308 308 307 307 307 306 303 297 288 276 262 248
324 326 327 329 330 331 333 334 335 335 336 335 334 333 331 329 328 327 326 325 324 323 321 320 318 317 315 314 314 315 317 319 319 317 315 312 310 309 309 310 312 312 311 312 314 315 316 320 324 329 332 335 340 346 349 346 339 332 329 329 332 335 338 338 337 336 334 332 328 323 318 313 310 309 308 309 310 311 313 313 310 302 290 274 258 244
327 330 332 333 334 335 336 337 338 338 338 338 337 336 334 332 331 331 331 330 330 329 328 326 325 323 321 319 318 317 318 319 318 317 315 312 310 308 307 309 311 312 311 312 313 315 318 321 325 330 334 338 343 348 352 352 347 340 337 340 343 345 345 345 344 343 342 341 339 335 329 322 316 311 307 303 302 304 307 310 309 303 292 275 256 241
331 333 335 336 337 337 338 339 340 340 340 340 339 337 335 335 334 334 335 336 336 335 334 333 331 330 328 325 323 321 320 319 318 316 314 312 310 308 307 309 310 312 312 312 313 316 318 322 326 331 336 343 350 354 355 356 355 353 352 353 353 354 355 355 354 353 354 355 355 355 351 346 342 338 331 319 306 298 295 295 294 292 285 273 256 240
334 336 337 338 338 339 340 341 342 342 341 340 339 337 336 336 336 337 338 339 339 339 338 337 336 335 334 331 328 325 322 320 318 316 315 313 310 309 308 309 310 312 313 314 315 317 320 323 327 331 337 345 355 1 3 2 2 4 7 7 6 5 4 3 3 3 5 7 8 8 8 6 6 7 11 18 23 23 9 272 261 262 263 258 248 236
336 338 339 339 340 341 341 342 343 342 341 340 338 337 336 336 337 338 340 341 341 341 341 340 339 338 338 335 332 329 325 322 320 317 316 314 312 311 310 310 312 314 316 317 319 321 323 326 330 335 341 348 357 5 8 8 10 14 19 20 20 17 13 11 13 16 20 21 19 16 13 10 8 7 8 13 20 30 44 69 145 211 228 232 229 223
338 339 340 341 342 343 343 343 343 342 340 339 338 336 336 336 337 339 340 342 342 342 342 341 341 341 341 339 336 332 328 325 322 320 318 316 315 314 314 314 316 318 320 321 322 325 328 331 334 341 349 357 5 11 15 17 21 25 28 29 29 26 22 20 22 26 30 30 28 23 17 12 9 6 5 6 11 19 33 52 87 155 196 209 211 209
339 340 341 343 344 344 344 343 342 340 339 338 337 336 336 336 337 338 340 341 342 342 342 342 342 343 344 344 341 338 333 330 326 324 322 320 319 319 319 320 321 322 322 323 325 329 334 336 339 345 356 8 18 24 28 31 33 33 32 31 31 30 28 26 27 29 29 28 25 21 16 11 8 6 5 5 9 17 28 45 80 126 163 185 196 200
340 342 343 344 345 344 343 342 340 339 337 336 336 336 336 337 337 338 339 340 341 341 342 342 343 345 346 347 347 344 340 336 332 329 327 326 325 325 325 325 325 325 325 325 328 334 341 343 346 354 10 25 36 41 44 46 43 38 33 30 30 30 30 28 29 29 26 21 17 12 8 5 3 3 3 4 8 16 30 54 93 123 141 161 178 191
342 344 345 345 345 343 342 340 339 337 337 337 337 337 338 338 339 339 339 340 341 342 342 343 345 347 348 350 350 349 346 343 338 335 333 333 332 331 331 330 330 329 328 329 333 341 351 356 4 17 35 48 55 59 58 54 48 42 37 33 30 29 27 26 26 25 21 16 11 6 3 0 359 357 357 357 360 9 28 56 95 120 133 149 166 180
344 345 345 345 343 342 340 339 338 338 338 339 340 341 341 341 341 341 341 341 342 343 344 346 347 349 351 352 352 351 349 347 344 342 341 341 340 338 336 334 334 334 334 337 344 355 7 21 37 51 61 66 68 68 64 58 51 46 41 37 35 32 29 27 25 21 16 11 6 2 359 358 356 355 353 352 354 2 17 43 78 108 129 149 166 178
345 345 345 343 342 341 340 339 339 340 342 344 345 346 346 345 344 344 344 345 345 346 347 349 351 352 353 353 352 351 351 351 350 350 349 349 347 345 342 340 340 342 345 353 5 20 35 50 63 72 76 77 75 71 64 59 54 49 45 42 39 36 32 28 23 18 13 8 4 1 359 358 356 355 354 354 356 1 15 39 70 100 125 153 173 180
346 345 343 342 341 340 340 341 342 344 346 348 350 351 350 349 348 348 349 349 349 349 351 353 354 355 355 354 353 353 353 354 355 356 356 355 354 352 350 349 351 356 4 17 33 50 63 73 78 81 83 82 79 73 67 61 55 50 47 44 41 38 33 27 22 17 12 7 4 1 0 359 358 357 357 359 1 7 20 40 69 100 122 155 176 181
346 344 342 340 340 341 342 344 345 347 349 351 353 354 354 353 353 353 353 353 353 353 355 357 358 359 359 357 356 356 356 357 358 359 359 360 360 360 360 1 6 15 28 43 58 70 78 83 85 86 86 84 80 75 69 62 55 50 47 45 42 38 33 26 21 16 11 7 3 2 0 359 358 359 360 2 7 19 47 65 83 109 140 181 189 186
344 342 341 340 341 343 345 347 349 350 352 353 355 356 357 358 358 358 357 357 357 358 359 360 1 1 1 1 360 360 0 1 1 2 2 4 5 8 11 15 23 34 47 61 73 80 85 87 89 90 89 86 81 75 68 61 55 51 48 47 43 39 32 27 21 16 11 7 5 3 1 360 0 1 2 4 12 35 109 137 150 174 208 221 214 204
342 341 340 340 342 345 347 349 351 352 353 355 356 358 359 1 2 3 2 2 2 2 2 3 3 3 3 3 3 3 3 4 5 5 6 8 11 15 20 27 37 47 58 69 78 85 89 90 91 92 90 87 81 74 67 61 56 52 50 48 45 40 34 28 23 18 14 10 8 6 4 2 3 4 6 10 19 43 113 154 167 177 196 209 215 216
341 340 340 341 343 346 349 352 354 355 355 356 357 358 360 1 3 5 6 6 6 6 6 6 5 5 5 5 5 5 5 6 7 9 10 13 16 21 27 36 46 56 65 74 81 87 91 92 93 92 90 87 80 74 68 62 57 54 52 50 46 42 37 32 27 22 18 14 12 10 9 8 9 11 14 20 30 52 99 145 163 171 178 187 202 213
Height
2877 2875 2873 2871 2869 2866 2863 2861 2860 2857 2854 2851 2849 2847 2845 2843 2840 2839 2837 2835 2834 2832 2830 2829 2827 2825 2823 2822 2820 2819 2817 2816 2815 2813 2812 2811 2810 2808 2807 2806 2804 2803 2801 2800 2799 2798 2798 2797 2796 2796 2795 2794 2794 2793 2793 2792 2792 2791 2790 2790 2789 2789 2788 2787 2786 2785 2784 2784 2785 2785 2786 2786 2787 2788 2788 2789 2790 2790 2789 2789 2790 2790 2790 2791 2791 2792
2873 2870 2868 2866 2865 2862 2859 2856 2855 2853 2850 2847 2845 2843 2841 2839 2836 2834 2832 2831 2829 2828 2826 2824 2822 2820 2818 2817 2815 2814 2812 2811 2810 2809 2807 2806 2805 2804 2802 2801 2800 2798 2797 2796 2795 2794 2793 2792 2791 2791 2790 2790 2790 2789 2789 2788 2787 2787 2785 2785 2785 2784 2783 2782 2780 2780 2780 2780 2780 2780 2781 2781 2782 2782 2782 2783 2784 2784 2784 2784 2784 2785 2786 2787 2788 2789
2869 2866 2864 2861 2860 2858 2855 2852 2850 2849 2846 2844 2841 2839 2837 2835 2832 2830 2828 2826 2824 2823 2821 2820 2818 2816 2814 2812 2811 2810 2808 2806 2805 2804 2802 2801 2800 2799 2798 2796 2795 2794 2793 2792 2791 2790 2789 2789 2788 2787 2787 2786 2786 2785 2785 2784 2783 2782 2781 2780 2779 2778 2777 2776 2775 2775 2775 2775 2775 2775 2776 2776 2776 2777 2777 2778 2778 2779 2780 2780 2780 2780 2781 2783 2785 2786
2865 2862 2859 2857 2855 2853 2851 2849 2847 2845 2843 2840 2838 2835 2833 2830 2828 2825 2824 2822 2820 2818 2817 2815 2814 2812 2810 2808 2807 2805 2804 2802 2800 2799 2798 2797 2795 2795 2793 2792 2791 2790 2789 2788 2787 2786 2785 2785 2784 2784 2783 2783 2782 2781 2781 2780 2779 2778 2776 2775 2775 2774 2773 2772 2771 2771 2770 2770 2771 2771 2771 2771 2772 2772 2772 2773 2774 2775 2775 2775 2776 2777 2778 2780 2782 2783
2860 2858 2855 2853 2850 2848 2846 2845 2843 2841 2838 2836 2834 2831 2829 2827 2824 2822 2820 2818 2816 2814 2812 2811 2810 2808 2806 2804 2802 2800 2799 2797 2796 2795 2793 2792 2791 2790 2789 2788 2787 2785 2785 2784 2783 2783 2782 2781 2781 2780 2780 2779 2778 2777 2776 2775 2774 2773 2772 2771 2770 2769 2768 2768 2767 2767 2766 2766 2766 2766 2766 2767 2767 2767 2768 2769 2770 2770 2771 2771 2772 2773 2773 2776 2778 2779
2856 2854 2852 2850 2847 2844 2843 2841 2839 2837 2834 2831 2829 2827 2825 2823 2821 2819 2816 2815 2813 2811 2809 2807 2805 2804 2802 2800 2798 2796 2795 2793 2792 2791 2790 2789 2788 2786 2785 2784 2783 2782 2781 2780 2780 2779 2779 2778 2778 2777 2776 2775 2774 2773 2772 2770 2769 2768 2768 2767 2766 2765 2764 2764 2763 2763 2763 2762 2762 2762 2762 2762 2763 2763 2764 2765 2765 2766 2767 2768 2769 2769 2770 2771 2773 2774
2851 2850 2849 2846 2844 2841 2839 2837 2835 2833 2830 2828 2825 2823 2822 2820 2818 2816 2814 2812 2810 2807 2805 2803 2801 2800 2798 2796 2794 2793 2791 2790 2789 2787 2786 2785 2784 2783 2781 2780 2780 2779 2778 2777 2777 2776 2776 2775 2774 2773 2772 2771 2770 2768 2767 2766 2765 2764 2763 2762 2761 2761 2760 2760 2760 2759 2759 2759 2758 2758 2758 2759 2759 2760 2760 2760 2761 2762 2763 2764 2765 2765 2766 2767 2768 2769
2847 2845 2845 2843 2840 2837 2835 2833 2831 2830 2828 2825 2823 2820 2818 2816 2815 2813 2811 2809 2807 2804 2801 2799 2797 2795 2794 2792 2791 2789 2787 2786 2785 2784 2783 2782 2780 2779 2778 2777 2776 2775 2775 2775 2774 2773 2772 2771 2770 2769 2768 2766 2765 2764 2763 2762 2761 2760 2759 2758 2758 2757 2757 2756 2756 2755 2755 2755 2755 2755 2755 2755 2755 2756 2756 2757 2758 2759 2760 2760 2761 2762 2762 2763 2764 2764
2845 2842 2840 2839 2837 2834 2831 2829 2828 2827 2826 2823 2821 2819 2815 2812 2810 2808 2807 2805 2803 2801 2799 2795 2793 2791 2790 2789 2787 2785 2784 2783 2782 2780 2779 2778 2776 2775 2774 2773 2773 2772 2772 2771 2770 2769 2768 2767 2766 2765 2764 2762 2761 2760 2759 2758 2757 2756 2755 2755 2754 2753 2753 2753 2752 2752 2752 2751 2751 2751 2751 2751 2751 2752 2753 2754 2755 2756 2756 2757 2757 2758 2759 2760 2760 2760
2841 2839 2836 2834 2833 2832 2830 2827 2825 2824 2823 2821 2819 2817 2814 2810 2806 2803 2801 2799 2798 2797 2795 2793 2790 2787 2785 2784 2783 2782 2781 2780 2779 2778 2776 2774 2773 2772 2771 2770 2769 2769 2768 2767 2766 2765 2764 2763 2762 2761 2760 2759 2758 2757 2756 2755 2754 2753 2752 2751 2750 2750 2749 2749 2749 2749 2748 2748 2748 2748 2748 2748 2749 2749 2750 2750 2751 2752 2752 2753 2754 2755 2755 2756 2756 2757
2837 2835 2834 2832 2830 2829 2828 2825 2823 2821 2820 2818 2815 2813 2811 2809 2805 2801 2796 2793 2792 2792 2791 2789 2787 2784 2781 2780 2779 2778 2777 2776 2775 2774 2773 2771 2770 2769 2767 2767 2766 2765 2764 2763 2762 2761 2760 2759 2758 2757 2756 2755 2754 2753 2752 2751 2750 2750 2749 2748 2747 2746 2746 2746 2745 2745 2745 2745 2745 2745 2745 2746 2747 2748 2748 2748 2748 2749 2749 2750 2750 2751 2752 2752 2752 2753
2835 2834 2832 2830 2828 2826 2824 2822 2820 2818 2817 2815 2811 2808 2806 2805 2803 2800 2795 2790 2788 2787 2786 2784 2783 2781 2779 2776 2775 2774 2773 2772 2771 2769 2768 2767 2765 2765 2764 2763 2762 2761 2760 2759 2758 2758 2757 2755 2754 2753 2752 2751 2750 2750 2749 2748 2747 2746 2745 2745 2744 2743 2743 2743 2742 2742 2742 2743 2743 2743 2743 2744 2745 2745 2745 2745 2745 2745 2746 2746 2747 2747 2747 2747 2748 2748
2834 2832 2830 2827 2825 2823 2821 2818 2816 2814 2813 2811 2808 2805 2802 2800 2799 2796 2793 2789 2786 2784 2782 2780 2778 2777 2776 2774 2773 2771 2770 2768 2767 2765 2764 2763 2762 2761 2760 2759 2758 2758 2757 2755 2755 2754 2753 2752 2750 2750 2749 2748 2747 2746 2745 2745 2744 2743 2742 2741 2741 2740 2740 2740 2740 2740 2740 2740 2741 2741 2742 2742 2742 2742 2742 2742 2742 2742 2743 2743 2743 2743 2743 2743 2744 2744
2831 2829 2826 2824 2821 2819 2818 2816 2813 2811 2809 2808 2805 2803 2799 2797 2795 2792 2789 2786 2783 2781 2780 2777 2774 2773 2772 2771 2770 2768 2766 2765 2763 2762 2761 2760 2759 2758 2757 2756 2755 2754 2753 2752 2750 2750 2750 2748 2746 2745 2745 2744 2744 2743 2742 2741 2740 2740 2739 2738 2738 2737 2737 2737 2737 2737 2737 2738 2739 2739 2739 2739 2739 2739 2739 2738 2738 2738 2738 2738 2738 2739 2739 2739 2740 2740
2828 2825 2823 2820 2818 2816 2815 2813 2811 2808 2806 2804 2802 2800 2796 2794 2791 2789 2786 2783 2780 2778 2776 2774 2771 2770 2769 2768 2767 2765 2764 2762 2760 2759 2758 2756 2756 2755 2755 2753 2751 2750 2750 2748 2746 2746 2745 2744 2742 2741 2741 2740 2740 2739 2738 2738 2737 2737 2736 2735 2735 2734 2734 2734 2734 2734 2735 2736 2736 2736 2736 2735 2734 2734 2734 2733 2733 2732 2732 2733 2733 2734 2735 2735 2735 2735
2825 2823 2820 2818 2815 2813 2812 2810 2808 2805 2802 2800 2799 2796 2793 2790 2788 2786 2783 2780 2778 2775 2774 2771 2768 2766 2765 2765 2765 2764 2762 2760 2758 2756 2754 2752 2752 2753 2752 2750 2748 2746 2745 2744 2742 2741 2740 2740 2738 2737 2736 2736 2736 2735 2735 2735 2734 2734 2733 2732 2731 2731 2731 2731 2731 2732 2733 2733 2733 2732 2730 2729 2728 2728 2727 2727 2727 2727 2728 2728 2729 2730 2730 2730 2730 2731
2823 2821 2818 2815 2812 2810 2808 2807 2805 2803 2800 2797 2795 2793 2790 2788 2785 2783 2781 2778 2776 2774 2772 2769 2766 2763 2761 2760 2761 2762 2760 2758 2755 2753 2751 2749 2748 2749 2749 2746 2744 2742 2741 2740 2739 2737 2736 2735 2734 2733 2732 2732 2732 2731 2731 2731 2731 2730 2730 2729 2729 2728 2728 2727 2728 2728 2728 2728 2727 2726 2725 2724 2724 2724 2723 2723 2723 2724 2724 2725 2725 2725 2725 2725 2725 2726
2820 2818 2815 2813 2810 2807 2805 2804 2802 2799 2797 2794 2792 2789 2787 2785 2783 2781 2779 2776 2774 2772 2769 2767 2765 2763 2760 2758 2757 2758 2758 2755 2752 2750 2747 2745 2744 2744 2744 2743 2740 2738 2737 2735 2735 2734 2732 2731 2730 2729 2729 2728 2728 2728 2728 2728 2728 2727 2726 2726 2725 2725 2725 2724 2724 2723 2722 2721 2721 2721 2720 2720 2720 2720 2720 2720 2720 2720 2721 2721 2721 2721 2721 2720 2721 2722
2817 2815 2813 2810 2807 2804 2802 2800 2799 2796 2794 2791 2789 2786 2784 2782 2781 2779 2776 2775 2772 2770 2768 2765 2763 2761 2759 2756 2755 2755 2755 2753 2750 2747 2744 2741 2740 2740 2740 2739 2736 2735 2733 2732 2731 2730 2729 2728 2727 2726 2725 2725 2725 2724 2724 2724 2724 2724 2723 2723 2722 2721 2721 2720 2720 2719 2718 2717 2717 2716 2716 2716 2715 2715 2716 2716 2716 2717 2717 2717 2717 2717 2716 2716 2716 2718
2813 2811 2810 2808 2804 2801 2799 2797 2796 2794 2791 2789 2786 2784 2782 2779 2778 2776 2774 2772 2770 2768 2766 2763 2760 2758 2756 2754 2753 2752 2752 2750 2747 2744 2741 2738 2736 2736 2736 2735 2733 2731 2729 2729 2728 2727 2726 2724 2723 2722 2721 2721 2721 2720 2720 2720 2720 2720 2719 2719 2718 2717 2717 2716 2716 2715 2715 2714 2713 2712 2712 2712 2711 2711 2712 2712 2713 2713 2713 2713 2713 2711 2711 2711 2712 2713
2810 2808 2806 2805 2802 2799 2795 2794 2793 2791 2790 2787 2784 2781 2779 2776 2775 2773 2771 2769 2767 2765 2763 2760 2758 2756 2754 2752 2750 2750 2749 2748 2745 2741 2738 2735 2733 2733 2734 2732 2730 2727 2726 2725 2725 2724 2722 2720 2719 2719 2718 2718 2717 2717 2716 2716 2715 2715 2714 2714 2713 2713 2712 2712 2711 2710 2710 2709 2709 2708 2708 2707 2707 2708 2708 2709 2710 2710 2710 2709 2707 2705 2705 2705 2707 2709
2808 2805 2803 2802 2800 2797 2794 2791 2790 2789 2787 2785 2782 2779 2776 2774 2771 2769 2767 2766 2764 2761 2760 2757 2755 2754 2752 2750 2748 2748 2747 2745 2743 2740 2736 2732 2730 2730 2731 2730 2727 2725 2723 2722 2721 2720 2719 2718 2716 2716 2715 2715 2715 2714 2713 2712 2711 2710 2709 2709 2708 2708 2707 2707 2706 2706 2705 2705 2704 2704 2703 2703 2703 2703 2704 2705 2705 2705 2703 2702 2700 2699 2699 2700 2702 2704
2805 2802 2800 2799 2797 2795 2793 2790 2788 2786 2785 2782 2780 2777 2774 2772 2770 2767 2765 2763 2761 2759 2757 2755 2753 2751 2750 2748 2746 2745 2745 2744 2741 2738 2735 2730 2727 2727 2728 2727 2725 2722 2720 2719 2719 2717 2716 2715 2714 2713 2713 2713 2712 2711 2710 2709 2708 2707 2705 2705 2704 2703 2702 2702 2701 2701 2701 2700 2700 2699 2699 2699 2699 2699 2699 2699 2698 2696 2695 2693 2692 2692 2693 2695 2697 2700
2803 2800 2798 2796 2795 2793 2791 2789 2786 2784 2782 2780 2777 2775 2772 2770 2768 2765 2763 2761 2759 2756 2754 2752 2750 2748 2747 2746 2745 2744 2743 2742 2740 2737 2733 2729 2726 2725 2725 2724 2722 2720 2718 2717 2716 2715 2713 2712 2712 2711 2710 2710 2710 2709 2707 2706 2705 2704 2703 2701 2700 2700 2699 2698 2697 2697 2696 2696 2695 2695 2694 2694 2694 2693 2692 2690 2690 2688 2687 2687 2687 2687 2689 2690 2693 2695
2801 2799 2797 2795 2794 2792 2789 2787 2784 2782 2780 2777 2775 2773 2770 2768 2765 2763 2761 2759 2757 2755 2752 2750 2748 2746 2745 2744 2743 2742 2741 2740 2739 2735 2732 2728 2725 2723 2723 2722 2720 2718 2715 2715 2714 2713 2711 2710 2709 2708 2708 2707 2706 2705 2705 2703 2702 2701 2700 2699 2698 2697 2696 2695 2694 2693 2693 2692 2691 2691 2690 2689 2688 2687 2686 2685 2684 2684 2683 2683 2683 2684 2685 2686 2688 2690
2799 2797 2795 2793 2791 2790 2787 2785 2783 2780 2778 2776 2774 2771 2769 2766 2764 2761 2760 2758 2756 2754 2751 2749 2747 2745 2743 2742 2741 2740 2739 2738 2737 2734 2731 2728 2724 2721 2721 2720 2719 2715 2713 2711 2711 2710 2708 2706 2706 2705 2705 2704 2703 2703 2702 2701 2700 2699 2697 2696 2695 2694 2693 2692 2691 2690 2689 2688 2687 2687 2686 2685 2683 2682 2681 2681 2680 2680 2680 2680 2680 2681 2681 2682 2683 2685
2797 2795 2793 2791 2789 2787 2785 2783 2780 2779 2777 2775 2773 2770 2768 2765 2762 2760 2758 2757 2755 2753 2750 2747 2745 2743 2741 2740 2739 2738 2737 2736 2735 2733 2730 2726 2722 2719 2718 2718 2716 2714 2710 2708 2707 2707 2705 2704 2703 2702 2701 2701 2700 2700 2699 2698 2697 2696 2695 2694 2692 2691 2690 2689 2688 2686 2685 2685 2683 2682 2681 2680 2679 2678 2678 2677 2677 2677 2677 2677 2677 2677 2677 2678 2678 2679
2794 2792 2790 2789 2786 2785 2782 2780 2779 2777 2775 2774 2772 2770 2768 2765 2762 2759 2757 2756 2754 2752 2749 2746 2744 2741 2739 2738 2736 2735 2735 2734 2733 2731 2728 2725 2721 2718 2716 2715 2714 2711 2709 2705 2704 2703 2703 2701 2700 2699 2698 2697 2696 2696 2695 2695 2694 2693 2691 2690 2689 2688 2687 2685 2684 2683 2682 2680 2679 2678 2677 2676 2675 2675 2675 2675 2674 2674 2673 2673 2673 2673 2673 2673 2673 2674
2792 2790 2788 2786 2785 2782 2780 2779 2777 2776 2775 2773 2771 2769 2767 2764 2762 2759 2756 2755 2753 2750 2748 2745 2743 2740 2737 2735 2734 2733 2732 2732 2731 2729 2726 2723 2719 2716 2715 2714 2712 2710 2707 2704 2700 2699 2699 2699 2698 2696 2695 2694 2694 2693 2692 2691 2690 2689 2688 2687 2686 2685 2683 2682 2681 2680 2679 2677 2676 2675 2675 2674 2673 2673 2672 2671 2670 2670 2669 2669 2669 2669 2668 2668 2669 2669
2789 2787 2786 2784 2783 2781 2779 2777 2776 2775 2773 2771 2770 2768 2765 2763 2761 2758 2755 2754 2751 2749 2746 2744 2741 2739 2736 2734 2731 2730 2730 2730 2730 2728 2725 2721 2717 2715 2714 2712 2710 2709 2707 2703 2699 2695 2694 2695 2696 2695 2693 2692 2691 2690 2690 2689 2688 2686 2685 2684 2682 2681 2680 2679 2678 2677 2676 2675 2674 2673 2672 2671 2671 2670 2669 2668 2667 2666 2665 2665 2665 2665 2665 2664 2665 2665
2786 2785 2783 2782 2780 2779 2777 2776 2774 2773 2771 2770 2768 2766 2764 2762 2759 2757 2755 2752 2750 2748 2745 2742 2740 2738 2736 2733 2730 2728 2726 2727 2728 2726 2723 2720 2716 2713 2712 2710 2708 2707 2706 2704 2700 2695 2690 2690 2692 2693 2692 2690 2689 2688 2688 2686 2685 2683 2682 2680 2679 2678 2678 2677 2676 2675 2674 2673 2672 2671 2670 2669 2668 2667 2666 2665 2664 2663 2663 2662 2662 2662 2662 2662 2662 2663
2784 2783 2781 2780 2779 2777 2776 2774 2773 2771 2769 2768 2766 2764 2762 2760 2758 2755 2753 2751 2749 2746 2744 2741 2738 2736 2734 2733 2730 2727 2725 2725 2725 2724 2721 2718 2715 2712 2710 2709 2706 2705 2704 2704 2702 2698 2693 2688 2688 2690 2690 2689 2687 2686 2685 2685 2683 2681 2679 2678 2677 2677 2676 2676 2675 2673 2672 2671 2670 2669 2668 2667 2666 2665 2664 2663 2662 2661 2660 2660 2660 2660 2660 2660 2660 2661
2783 2781 2780 2779 2777 2776 2774 2773 2771 2769 2767 2765 2764 2762 2760 2758 2756 2754 2751 2749 2747 2745 2742 2740 2737 2734 2732 2730 2728 2726 2724 2723 2723 2722 2720 2717 2714 2711 2709 2707 2705 2703 2702 2701 2700 2698 2695 2690 2688 2687 2687 2687 2686 2685 2684 2682 2681 2679 2678 2677 2676 2676 2675 2674 2673 2672 2670 2670 2669 2668 2666 2665 2664 2663 2662 2661 2660 2659 2659 2658 2658 2658 2658 2658 2658 2659
2782 2780 2779 2777 2776 2774 2773 2771 2769 2767 2765 2763 2761 2760 2758 2756 2754 2752 2750 2748 2746 2744 2741 2739 2736 2733 2730 2728 2726 2724 2723 2722 2721 2720 2718 2716 2713 2710 2708 2706 2704 2702 2700 2699 2698 2696 2694 2691 2689 2687 2685 2685 2685 2684 2683 2681 2680 2679 2678 2677 2675 2675 2674 2673 2671 2670 2669 2668 2667 2666 2665 2664 2663 2662 2661 2660 2659 2658 2657 2657 2657 2656 2656 2657 2657 2658
2780 2779 2778 2776 2774 2772 2770 2769 2767 2765 2763 2761 2760 2758 2756 2754 2752 2750 2748 2746 2744 2742 2740 2738 2735 2733 2730 2727 2724 2722 2721 2720 2720 2719 2717 2715 2712 2709 2707 2705 2703 2702 2700 2697 2696 2695 2692 2690 2689 2687 2685 2683 2683 2683 2682 2680 2679 2679 2678 2676 2675 2674 2672 2671 2670 2669 2668 2667 2666 2665 2664 2663 2662 2660 2660 2659 2658 2657 2657 2656 2656 2656 2656 2656 2657 2658
2779 2778 2776 2774 2772 2770 2769 2767 2765 2764 2762 2760 2758 2756 2755 2753 2750 2749 2747 2745 2743 2741 2739 2736 2734 2732 2730 2727 2725 2722 2720 2719 2718 2717 2715 2714 2712 2709 2706 2704 2702 2701 2699 2697 2695 2693 2691 2689 2688 2686 2685 2683 2682 2681 2681 2680 2680 2678 2677 2676 2675 2673 2672 2671 2670 2669 2668 2666 2665 2664 2663 2662 2661 2660 2659 2658 2657 2656 2656 2655 2655 2655 2655 2656 2657 2657
2778 2776 2775 2773 2771 2769 2767 2765 2764 2762 2760 2758 2757 2755 2753 2751 2749 2747 2745 2743 2741 2739 2737 2735 2733 2731 2729 2727 2725 2722 2719 2717 2716 2715 2714 2712 2711 2709 2706 2703 2702 2701 2700 2697 2695 2693 2691 2689 2686 2685 2685 2683 2682 2680 2680 2680 2679 2678 2677 2675 2675 2674 2673 2672 2670 2669 2668 2666 2665 2664 2662 2661 2660 2659 2658 2658 2657 2656 2655 2655 2655 2655 2655 2656 2656 2657
2777 2775 2773 2771 2770 2768 2766 2764 2762 2760 2759 2757 2755 2754 2752 2750 2748 2746 2744 2742 2740 2738 2736 2734 2731 2730 2728 2726 2724 2721 2719 2717 2715 2714 2712 2711 2710 2708 2705 2703 2701 2700 2699 2697 2695 2692 2690 2688 2686 2685 2683 2683 2682 2681 2680 2679 2679 2678 2677 2676 2675 2674 2673 2672 2670 2669 2668 2666 2665 2664 2662 2661 2660 2659 2658 2658 2657 2656 2656 2656 2655 2655 2655 2656 2656 2657
2776 2774 2772 2770 2769 2767 2765 2763 2761 2760 2758 2756 2754 2752 2750 2749 2747 2745 2743 2741 2739 2736 2734 2732 2730 2728 2726 2724 2722 2720 2718 2716 2714 2713 2711 2710 2709 2707 2705 2702 2700 2699 2698 2696 2695 2692 2690 2689 2687 2685 2683 2682 2682 2681 2681 2680 2679 2677 2677 2676 2676 2675 2674 2672 2671 2669 2668 2666 2665 2663 2662 2661 2660 2659 2658 2657 2657 2657 2656 2656 2656 2656 2656 2656 2656 2657
2775 2773 2771 2770 2768 2766 2764 2762 2760 2759 2757 2755 2754 2752 2750 2748 2746 2744 2742 2740 2738 2735 2733 2731 2729 2727 2725 2723 2721 2720 2717 2715 2714 2712 2710 2709 2708 2706 2705 2702 2700 2698 2696 2695 2693 2692 2690 2688 2687 2685 2684 2683 2682 2681 2681 2680 2679 2678 2678 2677 2676 2675 2674 2673 2671 2669 2668 2666 2664 2663 2661 2660 2659 2658 2657 2656 2656 2656 2656 2656 2656 2656 2656 2656 2656 2657
2774 2772 2770 2769 2767 2765 2764 2762 2760 2758 2756 2755 2753 2750 2749 2746 2744 2742 2740 2739 2737 2735 2732 2730 2728 2726 2724 2722 2721 2719 2717 2715 2713 2712 2710 2709 2707 2705 2704 2702 2699 2697 2695 2693 2692 2691 2690 2688 2686 2685 2685 2684 2683 2682 2681 2680 2680 2679 2679 2678 2677 2675 2674 2673 2671 2669 2667 2666 2665 2664 2662 2660 2659 2658 2657 2656 2655 2655 2655 2655 2655 2655 2656 2656 2656 2657
2773 2771 2770 2768 2766 2765 2763 2761 2760 2758 2756 2754 2752 2750 2747 2745 2743 2741 2739 2737 2735 2733 2731 2729 2727 2725 2723 2722 2720 2719 2717 2715 2713 2711 2710 2708 2706 2704 2702 2700 2699 2696 2694 2692 2691 2690 2689 2688 2687 2685 2685 2685 2684 2683 2682 2681 2681 2680 2680 2679 2677 2676 2675 2673 2671 2669 2667 2666 2665 2664 2663 2661 2660 2659 2658 2657 2656 2656 2656 2655 2655 2655 2656 2656 2657 2657
2773 2771 2769 2767 2765 2764 2762 2760 2759 2757 2755 2753 2751 2749 2747 2745 2743 2740 2739 2736 2735 2733 2730 2728 2726 2724 2722 2721 2719 2718 2716 2715 2713 2711 2709 2707 2705 2703 2701 2699 2697 2695 2693 2691 2690 2689 2689 2688 2687 2686 2686 2685 2685 2684 2683 2682 2682 2681 2680 2680 2678 2676 2675 2673 2671 2669 2668 2667 2666 2665 2663 2662 2660 2660 2659 2658 2657 2657 2656 2656 2656 2656 2656 2656 2657 2657
2772 2770 2769 2767 2765 2763 2761 2760 2758 2756 2754 2752 2750 2748 2746 2744 2742 2740 2738 2736 2734 2732 2730 2727 2725 2724 2722 2720 2719 2717 2716 2715 2713 2711 2709 2707 2705 2702 2700 2698 2696 2695 2693 2691 2690 2689 2689 2688 2687 2687 2686 2686 2686 2685 2684 2684 2683 2682 2681 2680 2679 2677 2675 2672 2671 2670 2669 2667 2666 2665 2664 2663 2661 2660 2659 2658 2657 2657 2657 2656 2656 2656 2656 2657 2657 2658
2771 2770 2768 2766 2765 2763 2761 2759 2757 2755 2753 2751 2750 2747 2745 2744 2742 2740 2738 2736 2734 2731 2729 2727 2725 2723 2721 2720 2718 2717 2715 2714 2712 2710 2708 2706 2704 2702 2699 2697 2695 2694 2692 2691 2690 2690 2689 2688 2688 2687 2687 2687 2686 2686 2685 2685 2684 2683 2682 2680 2679 2677 2675 2674 2672 2671 2670 2669 2667 2666 2665 2664 2663 2661 2660 2659 2658 2657 2657 2657 2657 2657 2657 2658 2658 2659
2770 2769 2767 2765 2764 2762 2760 2758 2756 2754 2752 2750 2749 2747 2745 2743 2741 2740 2738 2735 2733 2731 2729 2727 2725 2723 2721 2719 2718 2716 2715 2713 2711 2709 2707 2705 2703 2701 2699 2697 2695 2693 2692 2691 2690 2690 2689 2689 2688 2688 2688 2688 2687 2687 2686 2686 2685 2684 2682 2681 2679 2678 2676 2675 2674 2672 2671 2670 2669 2668 2666 2665 2664 2663 2661 2660 2659 2658 2657 2657 2657 2657 2657 2658 2658 2659
2770 2768 2766 2765 2763 2761 2759 2757 2755 2753 2751 2750 2748 2746 2745 2743 2741 2739 2737 2735 2733 2731 2729 2727 2725 2723 2721 2719 2717 2716 2714 2712 2710 2708 2706 2705 2702 2700 2698 2697 2695 2694 2692 2691 2691 2690 2690 2690 2689 2689 2689 2689 2688 2688 2688 2687 2686 2685 2683 2681 2680 2679 2677 2676 2675 2674 2673 2671 2670 2669 2668 2666 2665 2664 2662 2661 2660 2659 2658 2658 2658 2658 2658 2658 2658 2658
2769 2768 2766 2764 2762 2760 2758 2756 2754 2752 2751 2749 2748 2746 2745 2743 2741 2739 2737 2735 2733 2731 2729 2727 2725 2723 2721 2720 2718 2716 2714 2712 2710 2708 2706 2704 2702 2700 2698 2697 2695 2694 2693 2692 2692 2691 2691 2690 2690 2690 2690 2690 2690 2689 2688 2688 2686 2685 2684 2682 2681 2680 2679 2678 2677 2675 2674 2673 2672 2670 2669 2668 2666 2665 2663 2662 2660 2660 2659 2659 2659 2659 2658 2659 2659 2659
2769 2767 2765 2763 2761 2759 2757 2755 2754 2752 2750 2749 2747 2746 2745 2743 2741 2739 2737 2735 2733 2731 2729 2726 2725 2723 2721 2720 2718 2716 2714 2712 2710 2708 2706 2704 2702 2700 2699 2697 2696 2695 2694 2693 2692 2692 2692 2691 2691 2691 2691 2691 2691 2690 2689 2688 2687 2686 2685 2684 2682 2681 2680 2680 2678 2677 2676 2675 2673 2672 2671 2669 2668 2666 2664 2663 2661 2660 2660 2660 2660 2660 2659 2659 2659 2659
2769 2767 2765 2762 2760 2759 2757 2755 2753 2752 2750 2748 2747 2745 2744 2742 2741 2739 2737 2735 2733 2731 2729 2727 2725 2723 2721 2720 2718 2716 2714 2712 2710 2708 2706 2705 2703 2701 2699 2698 2696 2695 2695 2694 2694 2693 2693 2693 2693 2693 2693 2693 2692 2691 2690 2690 2689 2688 2686 2685 2684 2683 2682 2681 2680 2679 2678 2676 2675 2674 2672 2670 2669 2667 2665 2664 2662 2661 2660 2660 2660 2660 2660 2660 2660 2660
2768 2766 2764 2762 2760 2758 2757 2755 2753 2751 2750 2748 2746 2745 2743 2742 2740 2739 2737 2735 2734 2731 2730 2727 2725 2724 2722 2720 2718 2716 2715 2713 2711 2709 2707 2705 2703 2702 2700 2699 2698 2697 2696 2695 2695 2695 2695 2694 2694 2694 2694 2694 2693 2693 2692 2691 2690 2689 2688 2687 2686 2685 2684 2683 2682 2681 2680 2678 2677 2675 2674 2672 2670 2668 2666 2665 2663 2662 2661 2661 2661 2661 2661 2661 2661 2661